Home   Weather   Da Nang   Past weeks

Flag for Vietnam Past Weather in Da Nang, Vietnam — Yesterday and Last 2 Weeks

Now
77 °F

Fog.


Feels Like: 78 °F
Forecast: 73 / 77 °F
Wind: 6 mph from Northeast

Location: Da Nang Airport

Current Time: Dec 6, 2016 at 1:50:26 am

Latest Report: Dec 6, 2016 at 1:30 am


Visibility: 3 mi

Pressure: 30.04 "Hg

Humidity: 83%

Dew Point: 72 °F

Location of Da NangLocation

Past Weather in Da Nang — Graph

°F

Da Nang Temperature Yesterday

Maximum temperature yesterday: 81 °F (at 11:00 am)
Minimum temperature yesterday: 73 °F (at 1:00 am)
Average temperature yesterday: 76 °F

High & Low Weather Summary for the Past Weeks

 TemperatureHumidityPressure
High90 °F (Nov 22, 12:30 pm)100% (Nov 23, 5:30 am)30.15 "Hg (Nov 23, 5:30 am)
Low70 °F (Nov 27, 8:30 pm)62% (Nov 28, 11:30 am)29.74 "Hg (Nov 21, 1:30 pm)
Average76 °F88%29.97 "Hg
* Reported Nov 21 12:00 am — Dec 6 12:30 am, Da Nang, Weather by CustomWeather, © 2016

Note: Actual official high and low records may vary slightly from our data, if they occured in-between our weather recording intervals... More about our weather records

Advertising

Da Nang Weather History for the Previous 24 Hours

Scroll right to see more
 ConditionsComfort  
Time TempWeatherWind HumidityBarometerVisibility
12:30 am
Tue, Dec 6
75 °FFog.7 mph89%30.07 "Hg3 mi
12:00 am77 °FFog.9 mph83%30.07 "Hg3 mi
11:30 pm
Mon, Dec 5
77 °FFog.8 mph89%30.07 "Hg3 mi
11:00 pm77 °FFog.8 mph89%30.07 "Hg3 mi
10:30 pm77 °FFog.10 mph83%30.07 "Hg3 mi
10:00 pm77 °FFog.10 mph83%30.07 "Hg3 mi
9:30 pm77 °FFog.10 mph83%30.07 "Hg3 mi
9:00 pm77 °FFog.8 mph83%30.07 "Hg3 mi
8:30 pm75 °FFog.9 mph89%30.07 "Hg3 mi
8:00 pm75 °FFog.8 mph89%30.04 "Hg3 mi
7:30 pm75 °FLight rain. Fog.10 mph94%30.04 "Hg3 mi
7:00 pm75 °FFog.10 mph94%30.04 "Hg3 mi
6:30 pm75 °FLight rain. Fog.10 mph94%30.01 "Hg2 mi
6:00 pm75 °FLight rain. Fog.12 mph94%30.01 "Hg2 mi
5:30 pm75 °FLight rain. Fog.13 mph89%29.98 "Hg2 mi
5:00 pm75 °FLight rain. Fog.12 mph89%29.98 "Hg2 mi
4:30 pm75 °FLight rain. Fog.12 mph89%29.98 "Hg2 mi
4:00 pm75 °FFog.10 mph89%29.95 "Hg3 mi
3:30 pm75 °FLight rain. Broken clouds.10 mph89%29.95 "Hg4 mi
3:00 pm75 °FBroken clouds.8 mph89%29.95 "Hg4 mi
2:30 pm75 °FFog.10 mph89%29.95 "Hg3 mi
2:00 pm75 °FLight rain. Fog.14 mph89%29.95 "Hg3 mi
1:30 pm77 °FLight rain. Partly sunny.14 mph83%29.95 "Hg4 mi
1:00 pm79 °FScattered clouds.15 mph79%29.95 "Hg4 mi
12:30 pm81 °FScattered clouds.15 mph79%29.95 "Hg4 mi
12:00 pm81 °FScattered clouds.16 mph79%29.95 "Hg4 mi
11:30 am81 °FScattered clouds.16 mph79%29.98 "Hg4 mi
11:00 am81 °FScattered clouds.12 mph79%29.98 "Hg4 mi
10:30 am79 °FBroken clouds.15 mph84%30.01 "Hg4 mi
10:00 am77 °FScattered clouds.10 mph83%30.01 "Hg4 mi
9:30 am79 °FScattered clouds.14 mph84%30.01 "Hg4 mi
9:00 am77 °FScattered clouds.9 mph89%30.01 "Hg4 mi
8:30 am77 °FBroken clouds.7 mph89%30.01 "Hg4 mi
8:00 am77 °FLight rain. Fog.7 mph89%30.01 "Hg3 mi
7:30 am75 °FLight rain. Fog.6 mph94%30.01 "Hg3 mi
7:00 am75 °FLight rain. Fog.6 mph94%30.01 "Hg3 mi
6:30 am75 °FLight rain. Fog.6 mph94%29.98 "Hg3 mi
6:00 am75 °FPartly cloudy.6 mph94%29.98 "Hg4 mi
5:30 am75 °FPartly cloudy.6 mph94%29.98 "Hg4 mi
5:00 am75 °FLight rain. Partly cloudy.5 mph94%29.95 "Hg3 mi
4:30 am75 °FLight rain. Partly cloudy.6 mph94%29.95 "Hg3 mi
4:00 am75 °FLight rain. Partly cloudy.7 mph94%29.95 "Hg3 mi
3:30 am75 °FLight rain. Partly cloudy.6 mph94%29.95 "Hg3 mi
3:00 am75 °FLight rain. Partly cloudy.5 mph94%29.95 "Hg3 mi
2:30 am75 °FLight rain. Partly cloudy.6 mph94%29.95 "Hg3 mi
2:00 am75 °FLight rain. Partly cloudy.5 mph94%29.98 "Hg3 mi
1:30 am75 °FLight rain. Partly cloudy.7 mph94%29.98 "Hg3 mi
1:00 am73 °FLight rain. Partly cloudy.7 mph94%29.98 "Hg3 mi
Weather by CustomWeather, © 2016

See weather overviewHow to use our weather pages